Year,Month,Day,Hour,Minute,Value (Times are PST for windgust in km/hr)
2014,06,20,00,00,17.70
2014,06,20,00,01,25.70
2014,06,20,00,02,25.70
2014,06,20,00,03,19.30
2014,06,20,00,04,20.90
2014,06,20,00,05,24.20
2014,06,20,00,06,24.20
2014,06,20,00,07,22.50
2014,06,20,00,08,19.30
2014,06,20,00,09,14.50
2014,06,20,00,10,20.90
2014,06,20,00,11,30.60
2014,06,20,00,12,22.50
2014,06,20,00,13,19.30
2014,06,20,00,14,14.50
2014,06,20,00,15,14.50
2014,06,20,00,16,29.00
2014,06,20,00,17,19.30
2014,06,20,00,18,17.70
2014,06,20,00,19,24.20
2014,06,20,00,20,16.10
2014,06,20,00,21,22.50
2014,06,20,00,22,14.50
2014,06,20,00,23,24.20
2014,06,20,00,24,16.10
2014,06,20,00,25,22.50
2014,06,20,00,26,17.70
2014,06,20,00,27,16.10
2014,06,20,00,28,29.00
2014,06,20,00,29,14.50
2014,06,20,00,30,29.00
2014,06,20,00,31,22.50
2014,06,20,00,32,16.10
2014,06,20,00,33,22.50
2014,06,20,00,34,33.80
2014,06,20,00,35,25.70
2014,06,20,00,36,25.70
2014,06,20,00,37,24.20
2014,06,20,00,38,9.60
2014,06,20,00,39,19.30
2014,06,20,00,40,17.70
2014,06,20,00,41,12.90
2014,06,20,00,42,25.70
2014,06,20,00,43,29.00
2014,06,20,00,44,17.70
2014,06,20,00,45,11.30
2014,06,20,00,46,11.30
2014,06,20,00,47,9.60
2014,06,20,00,48,24.20
2014,06,20,00,49,16.10
2014,06,20,00,50,20.90
2014,06,20,00,51,11.30
2014,06,20,00,52,27.40
2014,06,20,00,53,14.50
2014,06,20,00,54,19.30
2014,06,20,00,55,22.50
2014,06,20,00,56,12.90
2014,06,20,00,57,9.60
2014,06,20,00,58,9.60
2014,06,20,00,59,9.60
2014,06,20,01,00,20.90
2014,06,20,01,01,17.70
2014,06,20,01,02,16.10
2014,06,20,01,03,8.10
2014,06,20,01,04,11.30
2014,06,20,01,05,9.60
2014,06,20,01,06,12.90
2014,06,20,01,07,9.60
2014,06,20,01,08,22.50
2014,06,20,01,09,11.30
2014,06,20,01,10,8.10
2014,06,20,01,11,12.90
2014,06,20,01,12,14.50
2014,06,20,01,13,17.70
2014,06,20,01,14,16.10
2014,06,20,01,15,14.50
2014,06,20,01,16,8.10
2014,06,20,01,17,12.90
2014,06,20,01,18,17.70
2014,06,20,01,19,8.10
2014,06,20,01,20,6.40
2014,06,20,01,21,6.40
2014,06,20,01,22,6.40
2014,06,20,01,23,6.40
2014,06,20,01,24,4.80
2014,06,20,01,25,3.20
2014,06,20,01,26,3.20
2014,06,20,01,27,1.60
2014,06,20,01,28,6.40
2014,06,20,01,29,8.10
2014,06,20,01,30,3.20
2014,06,20,01,31,4.80
2014,06,20,01,32,3.20
2014,06,20,01,33,3.20
2014,06,20,01,34,6.40
2014,06,20,01,35,6.40
2014,06,20,01,36,6.40
2014,06,20,01,37,8.10
2014,06,20,01,38,6.40
2014,06,20,01,39,8.10
2014,06,20,01,40,6.40
2014,06,20,01,41,4.80
2014,06,20,01,42,3.20
2014,06,20,01,43,6.40
2014,06,20,01,44,6.40
2014,06,20,01,45,8.10
2014,06,20,01,46,16.10
2014,06,20,01,47,11.30
2014,06,20,01,48,9.60
2014,06,20,01,49,4.80
2014,06,20,01,50,1.60
2014,06,20,01,51,3.20
2014,06,20,01,52,1.60
2014,06,20,01,53,1.60
2014,06,20,01,55,3.20
2014,06,20,01,56,3.20
2014,06,20,01,57,1.60
2014,06,20,01,58,1.60
2014,06,20,01,59,3.20
2014,06,20,02,00,1.60
2014,06,20,02,01,8.10
2014,06,20,02,02,4.80
2014,06,20,02,03,3.20
2014,06,20,02,04,3.20
2014,06,20,02,05,3.20
2014,06,20,02,06,3.20
2014,06,20,02,07,1.60
2014,06,20,02,08,3.20
2014,06,20,02,09,1.60
2014,06,20,02,10,3.20
2014,06,20,02,11,1.60
2014,06,20,02,12,1.60
2014,06,20,02,13,1.60
2014,06,20,02,17,1.60
2014,06,20,02,18,1.60
2014,06,20,02,25,1.60
2014,06,20,02,30,1.60
2014,06,20,02,31,1.60
2014,06,20,02,32,1.60
2014,06,20,02,33,1.60
2014,06,20,02,34,3.20
2014,06,20,02,35,1.60
2014,06,20,02,37,1.60
2014,06,20,02,39,1.60
2014,06,20,02,40,1.60
2014,06,20,02,41,1.60
2014,06,20,02,43,1.60
2014,06,20,02,44,1.60
2014,06,20,02,45,1.60
2014,06,20,02,55,1.60
2014,06,20,02,56,3.20
2014,06,20,02,57,1.60
2014,06,20,02,58,1.60
2014,06,20,02,59,1.60
2014,06,20,03,00,1.60
2014,06,20,03,01,1.60
2014,06,20,03,02,1.60
2014,06,20,03,03,3.20
2014,06,20,03,04,1.60
2014,06,20,03,05,3.20
2014,06,20,03,06,3.20
2014,06,20,03,07,1.60
2014,06,20,03,08,1.60
2014,06,20,03,09,1.60
2014,06,20,03,23,1.60
2014,06,20,03,24,1.60
2014,06,20,03,28,3.20
2014,06,20,03,29,3.20
2014,06,20,03,30,1.60
2014,06,20,03,31,1.60
2014,06,20,03,32,1.60
2014,06,20,03,34,3.20
2014,06,20,03,35,9.60
2014,06,20,03,36,6.40
2014,06,20,03,37,6.40
2014,06,20,03,38,8.10
2014,06,20,03,39,4.80
2014,06,20,03,40,1.60
2014,06,20,03,41,1.60
2014,06,20,03,50,1.60
2014,06,20,03,58,1.60
2014,06,20,03,59,3.20
2014,06,20,04,00,1.60
2014,06,20,04,02,3.20
2014,06,20,04,03,1.60
2014,06,20,04,05,1.60
2014,06,20,04,06,1.60
2014,06,20,04,07,3.20
2014,06,20,04,08,1.60
2014,06,20,04,09,3.20
2014,06,20,04,10,3.20
2014,06,20,04,11,1.60
2014,06,20,04,12,1.60
2014,06,20,04,13,1.60
2014,06,20,04,14,1.60
2014,06,20,04,21,1.60
2014,06,20,04,22,1.60
2014,06,20,04,44,1.60
2014,06,20,04,46,1.60
2014,06,20,04,47,1.60
2014,06,20,04,48,1.60
2014,06,20,04,49,3.20
2014,06,20,04,50,1.60
2014,06,20,04,52,1.60
2014,06,20,04,53,1.60
2014,06,20,05,21,1.60
2014,06,20,05,43,1.60
2014,06,20,05,44,1.60
2014,06,20,05,45,1.60
2014,06,20,05,46,1.60
2014,06,20,05,47,1.60
2014,06,20,05,48,1.60
2014,06,20,05,53,1.60
2014,06,20,06,30,1.60
2014,06,20,06,31,1.60
2014,06,20,06,32,1.60
2014,06,20,06,33,1.60
2014,06,20,06,34,1.60
2014,06,20,06,35,3.20
2014,06,20,06,36,3.20
2014,06,20,06,37,4.80
2014,06,20,06,38,3.20
2014,06,20,06,39,1.60
2014,06,20,06,54,1.60
2014,06,20,06,55,3.20
2014,06,20,06,56,1.60
2014,06,20,07,00,1.60
2014,06,20,07,02,1.60
2014,06,20,07,03,1.60
2014,06,20,07,04,1.60
2014,06,20,07,17,1.60
2014,06,20,07,18,1.60
2014,06,20,07,26,1.60
2014,06,20,07,27,1.60
2014,06,20,07,28,1.60
2014,06,20,07,29,1.60
2014,06,20,07,30,1.60
2014,06,20,07,31,1.60
2014,06,20,07,32,1.60
2014,06,20,07,33,1.60
2014,06,20,07,34,1.60
2014,06,20,07,37,1.60
2014,06,20,07,38,1.60
2014,06,20,07,39,1.60
2014,06,20,07,40,1.60
2014,06,20,07,41,1.60
2014,06,20,07,42,1.60
2014,06,20,07,46,1.60
2014,06,20,08,09,1.60
2014,06,20,08,10,1.60
2014,06,20,08,11,1.60
2014,06,20,08,12,1.60
2014,06,20,08,13,1.60
2014,06,20,08,14,1.60
2014,06,20,08,15,1.60
2014,06,20,08,16,3.20
2014,06,20,08,17,3.20
2014,06,20,08,18,3.20
2014,06,20,08,19,4.80
2014,06,20,08,20,3.20
2014,06,20,08,21,3.20
2014,06,20,08,22,3.20
2014,06,20,08,23,3.20
2014,06,20,08,24,3.20
2014,06,20,08,25,1.60
2014,06,20,08,26,3.20
2014,06,20,08,27,3.20
2014,06,20,08,28,4.80
2014,06,20,08,29,4.80
2014,06,20,08,30,3.20
2014,06,20,08,31,3.20
2014,06,20,08,32,3.20
2014,06,20,08,33,3.20
2014,06,20,08,34,3.20
2014,06,20,08,35,1.60
2014,06,20,08,36,1.60
2014,06,20,08,37,1.60
2014,06,20,08,38,3.20
2014,06,20,08,39,3.20
2014,06,20,08,40,1.60
2014,06,20,08,41,3.20
2014,06,20,08,42,3.20
2014,06,20,08,43,1.60
2014,06,20,08,44,1.60
2014,06,20,08,45,1.60
2014,06,20,08,46,1.60
2014,06,20,08,47,1.60
2014,06,20,08,48,1.60
2014,06,20,08,49,1.60
2014,06,20,08,50,3.20
2014,06,20,08,51,3.20
2014,06,20,08,52,1.60
2014,06,20,08,53,3.20
2014,06,20,08,54,4.80
2014,06,20,08,55,1.60
2014,06,20,08,56,1.60
2014,06,20,08,57,3.20
2014,06,20,08,58,3.20
2014,06,20,08,59,3.20
2014,06,20,09,00,1.60
2014,06,20,09,01,1.60
2014,06,20,09,02,1.60
2014,06,20,09,03,3.20
2014,06,20,09,04,1.60
2014,06,20,09,05,1.60
2014,06,20,09,06,1.60
2014,06,20,09,07,1.60
2014,06,20,09,08,1.60
2014,06,20,09,09,1.60
2014,06,20,09,10,3.20
2014,06,20,09,11,3.20
2014,06,20,09,12,1.60
2014,06,20,09,13,1.60
2014,06,20,09,14,1.60
2014,06,20,09,15,1.60
2014,06,20,09,16,3.20
2014,06,20,09,17,4.80
2014,06,20,09,18,3.20
2014,06,20,09,19,4.80
2014,06,20,09,20,4.80
2014,06,20,09,21,3.20
2014,06,20,09,22,3.20
2014,06,20,09,23,4.80
2014,06,20,09,24,4.80
2014,06,20,09,25,1.60
2014,06,20,09,26,4.80
2014,06,20,09,27,4.80
2014,06,20,09,28,4.80
2014,06,20,09,29,1.60
2014,06,20,09,30,3.20
2014,06,20,09,31,1.60
2014,06,20,09,32,1.60
2014,06,20,09,33,1.60
2014,06,20,09,34,1.60
2014,06,20,09,35,4.80
2014,06,20,09,36,4.80
2014,06,20,09,37,1.60
2014,06,20,09,39,1.60
2014,06,20,09,40,1.60
2014,06,20,09,41,1.60
2014,06,20,09,42,4.80
2014,06,20,09,43,3.20
2014,06,20,09,44,1.60
2014,06,20,09,45,1.60
2014,06,20,09,46,1.60
2014,06,20,09,47,1.60
2014,06,20,09,50,1.60
2014,06,20,09,51,1.60
2014,06,20,09,52,1.60
2014,06,20,09,53,1.60
2014,06,20,09,54,1.60
2014,06,20,09,55,1.60
2014,06,20,09,56,1.60
2014,06,20,09,57,1.60
2014,06,20,09,58,1.60
2014,06,20,10,00,1.60
2014,06,20,10,01,1.60
2014,06,20,10,02,1.60
2014,06,20,10,03,1.60
2014,06,20,10,06,1.60
2014,06,20,10,07,1.60
2014,06,20,10,10,1.60
2014,06,20,10,12,1.60
2014,06,20,10,15,1.60
2014,06,20,10,16,1.60
2014,06,20,10,17,1.60
2014,06,20,10,18,1.60
2014,06,20,10,19,1.60
2014,06,20,10,20,1.60
2014,06,20,10,21,1.60
2014,06,20,10,22,3.20
2014,06,20,10,23,1.60
2014,06,20,10,24,1.60
2014,06,20,10,25,3.20
2014,06,20,10,26,4.80
2014,06,20,10,27,1.60
2014,06,20,10,31,1.60
2014,06,20,10,32,1.60
2014,06,20,10,33,1.60
2014,06,20,10,34,1.60
2014,06,20,10,35,1.60
2014,06,20,10,39,1.60
2014,06,20,10,41,1.60
2014,06,20,10,42,1.60
2014,06,20,10,43,1.60
2014,06,20,10,44,1.60
2014,06,20,10,45,1.60
2014,06,20,10,47,1.60
2014,06,20,10,48,3.20
2014,06,20,10,49,3.20
2014,06,20,10,50,1.60
2014,06,20,10,51,1.60
2014,06,20,10,52,1.60
2014,06,20,10,53,3.20
2014,06,20,10,54,4.80
2014,06,20,10,55,3.20
2014,06,20,10,56,1.60
2014,06,20,10,57,1.60
2014,06,20,10,58,1.60
2014,06,20,10,59,1.60
2014,06,20,11,00,1.60
2014,06,20,11,02,1.60
2014,06,20,11,03,3.20
2014,06,20,11,06,1.60
2014,06,20,11,07,3.20
2014,06,20,11,08,1.60
2014,06,20,11,09,6.40
2014,06,20,11,10,1.60
2014,06,20,11,12,4.80
2014,06,20,11,13,3.20
2014,06,20,11,14,3.20
2014,06,20,11,15,3.20
2014,06,20,11,16,3.20
2014,06,20,11,17,4.80
2014,06,20,11,18,3.20
2014,06,20,11,19,3.20
2014,06,20,11,20,3.20
2014,06,20,11,21,4.80
2014,06,20,11,22,3.20
2014,06,20,11,23,4.80
2014,06,20,11,24,4.80
2014,06,20,11,25,6.40
2014,06,20,11,26,3.20
2014,06,20,11,27,9.60
2014,06,20,11,28,9.60
2014,06,20,11,29,8.10
2014,06,20,11,30,8.10
2014,06,20,11,31,6.40
2014,06,20,11,32,4.80
2014,06,20,11,33,11.30
2014,06,20,11,34,9.60
2014,06,20,11,35,11.30
2014,06,20,11,36,11.30
2014,06,20,11,37,9.60
2014,06,20,11,38,4.80
2014,06,20,11,39,6.40
2014,06,20,11,40,8.10
2014,06,20,11,41,4.80
2014,06,20,11,42,1.60
2014,06,20,11,43,1.60
2014,06,20,11,44,6.40
2014,06,20,11,45,3.20
2014,06,20,11,46,4.80
2014,06,20,11,47,8.10
2014,06,20,11,48,6.40
2014,06,20,11,49,8.10
2014,06,20,11,50,6.40
2014,06,20,11,51,8.10
2014,06,20,11,52,11.30
2014,06,20,11,53,11.30
2014,06,20,11,54,8.10
2014,06,20,11,55,6.40
2014,06,20,11,56,6.40
2014,06,20,11,57,8.10
2014,06,20,11,58,6.40
2014,06,20,11,59,6.40
2014,06,20,12,00,4.80
2014,06,20,12,01,4.80
2014,06,20,12,02,3.20
2014,06,20,12,03,4.80
2014,06,20,12,04,1.60
2014,06,20,12,11,1.60
2014,06,20,12,15,1.60
2014,06,20,12,16,3.20
2014,06,20,12,17,3.20
2014,06,20,12,22,1.60
2014,06,20,12,24,1.60
2014,06,20,12,25,1.60
2014,06,20,12,26,1.60
2014,06,20,12,27,1.60
2014,06,20,12,28,1.60
2014,06,20,12,29,1.60
2014,06,20,12,30,3.20
2014,06,20,12,31,8.10
2014,06,20,12,32,6.40
2014,06,20,12,33,4.80
2014,06,20,12,34,6.40
2014,06,20,12,35,4.80
2014,06,20,12,36,6.40
2014,06,20,12,37,3.20
2014,06,20,12,38,1.60
2014,06,20,12,39,3.20
2014,06,20,12,40,3.20
2014,06,20,12,41,6.40
2014,06,20,12,42,12.90
2014,06,20,12,43,9.60
2014,06,20,12,44,8.10
2014,06,20,12,45,8.10
2014,06,20,12,46,4.80
2014,06,20,12,47,3.20
2014,06,20,12,48,4.80
2014,06,20,12,49,3.20
2014,06,20,12,50,1.60
2014,06,20,12,51,1.60
2014,06,20,12,52,6.40
2014,06,20,12,53,4.80
2014,06,20,12,54,1.60
2014,06,20,12,55,3.20
2014,06,20,12,56,6.40
2014,06,20,12,57,6.40
2014,06,20,12,58,6.40
2014,06,20,12,59,1.60
2014,06,20,13,00,1.60
2014,06,20,13,01,1.60
2014,06,20,13,02,1.60
2014,06,20,13,03,8.10
2014,06,20,13,04,3.20
2014,06,20,13,05,1.60
2014,06,20,13,06,1.60
2014,06,20,13,07,1.60
2014,06,20,13,08,3.20
2014,06,20,13,09,3.20
2014,06,20,13,10,3.20
2014,06,20,13,11,3.20
2014,06,20,13,12,6.40
2014,06,20,13,13,3.20
2014,06,20,13,14,3.20
2014,06,20,13,15,8.10
2014,06,20,13,16,9.60
2014,06,20,13,17,9.60
2014,06,20,13,18,11.30
2014,06,20,13,19,11.30
2014,06,20,13,20,11.30
2014,06,20,13,21,9.60
2014,06,20,13,22,9.60
2014,06,20,13,23,17.70
2014,06,20,13,24,17.70
2014,06,20,13,25,16.10
2014,06,20,13,26,14.50
2014,06,20,13,27,14.50
2014,06,20,13,28,12.90
2014,06,20,13,29,14.50
2014,06,20,13,30,14.50
2014,06,20,13,31,12.90
2014,06,20,13,32,11.30
2014,06,20,13,33,8.10
2014,06,20,13,34,8.10
2014,06,20,13,35,6.40
2014,06,20,13,36,8.10
2014,06,20,13,37,6.40
2014,06,20,13,38,3.20
2014,06,20,13,39,3.20
2014,06,20,13,40,1.60
2014,06,20,13,41,1.60
2014,06,20,13,42,1.60
2014,06,20,13,43,1.60
2014,06,20,13,44,1.60
2014,06,20,13,45,1.60
2014,06,20,13,46,1.60
2014,06,20,13,47,1.60
2014,06,20,13,48,3.20
2014,06,20,13,49,3.20
2014,06,20,13,50,1.60
2014,06,20,13,51,1.60
2014,06,20,13,52,1.60
2014,06,20,13,53,1.60
2014,06,20,13,54,1.60
2014,06,20,13,56,1.60
2014,06,20,13,57,1.60
2014,06,20,13,58,1.60
2014,06,20,13,59,1.60
2014,06,20,14,01,1.60
2014,06,20,14,11,1.60
2014,06,20,14,12,1.60
2014,06,20,14,13,1.60
2014,06,20,14,14,1.60
2014,06,20,14,15,1.60
2014,06,20,14,16,1.60
2014,06,20,14,17,1.60
2014,06,20,14,18,1.60
2014,06,20,14,19,1.60
2014,06,20,14,20,1.60
2014,06,20,14,30,1.60
2014,06,20,14,32,1.60
2014,06,20,14,33,3.20
2014,06,20,14,34,3.20
2014,06,20,14,35,3.20
2014,06,20,14,36,1.60
2014,06,20,14,37,1.60
2014,06,20,14,38,3.20
2014,06,20,14,39,3.20
2014,06,20,14,40,3.20
2014,06,20,14,41,1.60
2014,06,20,14,42,1.60
2014,06,20,14,43,3.20
2014,06,20,14,44,4.80
2014,06,20,14,45,4.80
2014,06,20,14,46,3.20
2014,06,20,14,47,4.80
2014,06,20,14,48,1.60
2014,06,20,14,54,1.60
2014,06,20,14,57,1.60
2014,06,20,14,58,1.60
2014,06,20,14,59,3.20
2014,06,20,15,00,1.60
2014,06,20,15,03,1.60
2014,06,20,15,04,3.20
2014,06,20,15,05,3.20
2014,06,20,15,06,1.60
2014,06,20,15,07,3.20
2014,06,20,15,08,1.60
2014,06,20,15,10,1.60
2014,06,20,15,11,1.60
2014,06,20,15,12,1.60
2014,06,20,15,13,3.20
2014,06,20,15,14,1.60
2014,06,20,15,15,1.60
2014,06,20,15,16,3.20
2014,06,20,15,17,4.80
2014,06,20,15,18,3.20
2014,06,20,15,19,3.20
2014,06,20,15,20,4.80
2014,06,20,15,21,3.20
2014,06,20,15,22,4.80
2014,06,20,15,23,4.80
2014,06,20,15,24,3.20
2014,06,20,15,25,4.80
2014,06,20,15,26,6.40
2014,06,20,15,27,4.80
2014,06,20,15,28,6.40
2014,06,20,15,29,4.80
2014,06,20,15,30,4.80
2014,06,20,15,31,4.80
2014,06,20,15,32,4.80
2014,06,20,15,33,4.80
2014,06,20,15,34,3.20
2014,06,20,15,35,3.20
2014,06,20,15,36,3.20
2014,06,20,15,37,4.80
2014,06,20,15,38,8.10
2014,06,20,15,39,6.40
2014,06,20,15,40,4.80
2014,06,20,15,41,4.80
2014,06,20,15,42,4.80
2014,06,20,15,43,4.80
2014,06,20,15,44,6.40
2014,06,20,15,45,4.80
2014,06,20,15,46,6.40
2014,06,20,15,47,3.20
2014,06,20,15,48,3.20
2014,06,20,15,49,1.60
2014,06,20,15,50,1.60
2014,06,20,15,52,1.60
2014,06,20,16,12,1.60
2014,06,20,16,16,1.60
2014,06,20,16,17,1.60
2014,06,20,16,19,1.60
2014,06,20,16,20,1.60
2014,06,20,16,21,3.20
2014,06,20,16,22,1.60
2014,06,20,16,25,1.60
2014,06,20,16,26,3.20
2014,06,20,16,27,1.60
2014,06,20,16,29,1.60
2014,06,20,16,30,1.60
2014,06,20,16,31,1.60
2014,06,20,16,32,3.20
2014,06,20,16,33,1.60
2014,06,20,16,34,1.60
2014,06,20,16,41,1.60
2014,06,20,16,42,1.60
2014,06,20,16,45,1.60
2014,06,20,16,46,3.20
2014,06,20,16,47,1.60
2014,06,20,16,48,1.60
2014,06,20,16,49,1.60
2014,06,20,16,51,1.60
2014,06,20,16,57,1.60
2014,06,20,16,58,1.60
2014,06,20,17,00,1.60
2014,06,20,17,01,1.60
2014,06,20,17,02,3.20
2014,06,20,17,03,1.60
2014,06,20,17,06,1.60
2014,06,20,17,09,1.60
2014,06,20,17,12,1.60
2014,06,20,17,44,1.60
2014,06,20,18,22,1.60
2014,06,20,18,57,1.60
2014,06,20,18,58,1.60
2014,06,20,18,59,1.60
2014,06,20,19,00,1.60
2014,06,20,20,40,1.60
2014,06,20,20,41,1.60
2014,06,20,21,06,1.60
2014,06,20,22,36,1.60
2014,06,20,22,37,1.60
2014,06,20,22,44,1.60
2014,06,20,22,45,1.60
2014,06,20,22,46,1.60
2014,06,20,22,50,1.60
2014,06,20,22,51,1.60
2014,06,20,22,54,1.60
2014,06,20,22,55,1.60
2014,06,20,22,56,3.20
2014,06,20,22,59,1.60
2014,06,20,23,36,1.60
2014,06,20,23,37,1.60
2014,06,20,23,46,1.60
2014,06,20,23,51,1.60
2014,06,20,23,52,3.20
2014,06,20,23,53,3.20
2014,06,20,23,54,3.20
2014,06,20,23,55,3.20
2014,06,20,23,56,3.20
2014,06,20,23,57,3.20
2014,06,20,23,58,3.20
2014,06,20,23,59,3.20
